Showing default

GEN1A-1, 69004

AKA "GEN1A-1" on Space-Track | Orbit data source: Space-Track

GEN1A-1, 69004 is an American payload satellite in SSO that was launched on Sun, 03 May 2026 UTC via an FALCON 9 launch vehicle from the Air Force Western Test Range (AFWTR). Payload-class satellites include a variety of spacecraft equipped with specific instruments for various scientific and technological missions. These include communications satellites like Starlink; space stations such as the ISS; scientific satellites like the Hubble; Earth observation satellites from companies like Planet Labs, Umbra, and HawkEye 360; GPS; miniature CubeSats for education and research; and military/defense satellites.

Loading next visibility...
Identifier
69004, 2026-100AA
Orbit
SSO
Country
Flag of USUS
Related business
None
Manufacturer
Unknown
Mission
Operational spacecraft
Bus & Motor
Unknown
Mass
Unknown
Launch date (UTC)
2026-05-03 (2 months ago)
Launch vehicle
FALCON 9
Launch site
Air Force Western Test Range (AFWTR)
Object type
Payload
Rocket body
Debris
Shape & HBR
Unknown shape, 14.5 m
Radar Cross Section
Medium (>0.1 m² and <1 m²)

Expand to show TLE details & history
Last TLE update: 14 hours ago

TLE from 14 hours ago
0 GEN1A-1
1 69004U 26100AA  26175.20687395  .00002477  00000-0  11753-3 0  9999
2 69004  97.4045  72.8898 0004374  15.0581 345.0784 15.20185603  7885
Epoch: 2026-06-24T04:57Z
TLE epoch observation values (Epoch: 2026-06-24T04:57:53.909Z)
Latitude
0.00002°
Longitude
86.04777°
Altitude
505.461 km
Speed
7.613 km/s
True Right ascension
04h 51m 33s
True Declination
0° 00' 00"
Sunlit
Object was in daylight at epoch
Visualization orbit readout
Latitude
Unknown
Longitude
Unknown
Altitude
Unknown
Speed
Unknown
Apparent Right ascension
Unknown
Apparent Declination
Unknown
Sunlit
N/A
Visualization observer readout
Local Sidereal Time
06:03:50
Azimuth
Unknown
Elevation
Unknown
Doppler factor
Unknown
Orbital elements
Apogee altitude
505.255 km
Perigee altitude
499.236 km
Semi-major axis
6,880.383 km
Eccentricity
0.00044
Inclination
97.4045°
RAAN
72.8898°
Arg. of periapsis
15.0581°
True anomaly
345.06549°
Mean anomaly
345.0784°
Eccentric anomaly
345.07194°
Mean motion
3.80298 °/min
Orbital period
94.66 mins
BSTAR
0.00011753
Loading maneuver chart data...
Computing Atmospheric mass density...
Loading historical data...
Loading historical data...
Loading historical data...
Loading historical data...
Loading historical data...
Loading historical data...
Loading historical data...

Documentation

Showing up to 5 results
|